Regional Weather Roundup
Issued by NWS

Home | Current Version | Previous Version | Graphics & Text | Print | Product List | Glossary On
Versions: 1 2 3 4 5 6 7 8 9 10 11 12 13 14 15 16 17 18 19 20 21 22 23 24 25 26 27 28 29 30 31 32 33 34 35 36 37 38 39 40 41 42 43 44 45 46 47 48 49 50
000
ASUS43 KLSX 271159
RWRMO

WEATHER SUMMARY FOR MISSOURI
NATIONAL WEATHER SERVICE SPRINGFIELD MO
600 AM CST FRI FEB 27 2015

NOTE: "FAIR" INDICATES FEW OR NO CLOUDS BELOW 12,000 FEET WITH NO
       SIGNIFICANT WEATHER AND/OR OBSTRUCTIONS TO VISIBILITY.
       CURRENT SKY AND/OR WEATHER CONDITIONS ARE NOT AVAILABLE FOR
       CHILLICOTHE AND FARMINGTON.

MOZ001>031-035>038-043-044-053-054-271300-
...NORTHERN AND WESTERN MISSOURI...

CITY           SKY/WX    TMP DP  RH WIND       PRES   REMARKS
KANSAS CTY INT PTCLDY     1  -4  79 CALM      30.60R
6HR MIN TEMP:   0; 6HR MAX TEMP:   4;

KANSAS C DTWN  CLEAR      4  -5  66 N6        30.63R WCI  -7
6HR MIN TEMP:   4; 6HR MAX TEMP:   8;

LEE`S SUMMIT   CLEAR      3  -4  72 N8        30.59S WCI -10
6HR MIN TEMP:   2; 6HR MAX TEMP:   7;

ST JOSEPH      CLEAR     -2  -5  87 N3        30.63R
6HR MIN TEMP:  -2; 6HR MAX TEMP:   3;

CHILLICOTHE      N/A      0  -6  76 CALM      30.63R
6HR MIN TEMP:   0; 6HR MAX TEMP:   4;

KIRKSVILLE     CLEAR     -6  -8  91 NW5       30.58S WCI -17
6HR MIN TEMP:  -7; 6HR MAX TEMP:  -1;


$$
MOZ066>068-077>081-088>096-101>105-271300-
...SOUTHWEST MISSOURI...

CITY           SKY/WX    TMP DP  RH WIND       PRES   REMARKS
SPRINGFIELD    CLEAR      7   0  73 N6        30.52S WCI  -3
6HR MIN TEMP:   7; 6HR MAX TEMP:  13;

JOPLIN         CLEAR      8   2  76 NE6       30.58R WCI  -2
6HR MIN TEMP:   8; 6HR MAX TEMP:  15;


$$
MOZ032>034-039>042-045>050-055>058-069>072-271300-
...CENTRAL MISSOURI...

CITY           SKY/WX    TMP DP  RH WIND       PRES   REMARKS
COLUMBIA       CLEAR      1  -4  79 N6        30.59S WCI -10
6HR MIN TEMP:   1; 6HR MAX TEMP:   7;

JEFFERSON CITY CLEAR      4  -4  69 CALM      30.64R
6HR MIN TEMP:   4; 6HR MAX TEMP:  10;

ROLLA          CLEAR      2  -6  69 N6        30.55R WCI  -9
6HR MIN TEMP:   2; 6HR MAX TEMP:   8;

SEDALIA        CLEAR      3  -3  76 N5        30.61R WCI  -6
6HR MIN TEMP:   3; 6HR MAX TEMP:   9;

OSAGE BEACH    CLEAR      3   0  85 CALM      30.58S

$$
MOZ051-052-059>065-271300-
...EAST CENTRAL MISSOURI...

CITY           SKY/WX    TMP DP  RH WIND       PRES   REMARKS
ST LOUIS INTL  CLEAR      3  -6  66 NW5       30.62R WCI  -6
6HR MIN TEMP:   3; 6HR MAX TEMP:   9;

SPIRIT OF STL  CLEAR      3  -5  69 NW3       30.63R
6HR MIN TEMP:   3; 6HR MAX TEMP:   9;

ST CHARLES     PTCLDY     0  -7  72 NW6       30.63R WCI -12
6HR MIN TEMP:   0; 6HR MAX TEMP:   7;


$$
MOZ072>076-082>087-097>100-106>115-271300-
...SOUTH CENTRAL AND SOUTHEAST MISSOURI...

CITY           SKY/WX    TMP DP  RH WIND       PRES   REMARKS
CAPE GIRARDEAU CLEAR      9   1  70 N9        30.61R WCI  -4
6HR MIN TEMP:   9; 6HR MAX TEMP:  20;

FARMINGTON     CLEAR      3  -2  78 NW6       30.58S WCI  -8
6HR MIN TEMP:   3; 6HR MAX TEMP:  10;

POPLAR BLUFF   CLEAR     12   1  61 N8        30.60R WCI   0
6HR MIN TEMP:  11; 6HR MAX TEMP:  21;

WEST PLAINS    CLEAR      6  -2  69 N5        30.53R WCI  -3
6HR MIN TEMP:   6; 6HR MAX TEMP:  14;


$$



USA.gov is the U.S. government's official web portal to all federal, state and local government web resources and services.